TimeEDT,TemperatureF,Dew PointF,Humidity,Sea Level PressureIn,VisibilityMPH,Wind Direction,Wind SpeedMPH,Gust SpeedMPH,PrecipitationIn,Events,Conditions,WindDirDegrees,DateUTC
12:54 AM,44.1,39.9,85,29.86,10.0,South,6.9,-,N/A,,Overcast,180,2013-03-24 04:54:00
1:54 AM,44.1,39.9,85,29.90,9.0,South,6.9,-,0.00,Rain,Light Rain,190,2013-03-24 05:54:00
2:54 AM,43.0,41.0,93,29.83,5.0,Calm,Calm,-,0.04,Rain,Light Rain,0,2013-03-24 06:54:00
3:41 AM,42.8,41.0,93,29.82,5.0,SW,5.8,-,0.01,Rain,Light Rain,220,2013-03-24 07:41:00
3:54 AM,43.0,41.0,93,29.80,4.0,SW,5.8,-,0.03,Rain,Rain,230,2013-03-24 07:54:00
4:34 AM,42.8,41.0,93,29.79,5.0,SSE,3.5,-,0.07,Rain,Light Rain,160,2013-03-24 08:34:00
4:54 AM,42.1,41.0,96,29.76,4.0,South,4.6,-,0.09,Rain,Light Rain,180,2013-03-24 08:54:00
5:17 AM,42.8,41.0,93,29.77,4.0,SSW,4.6,-,0.04,Rain,Rain,200,2013-03-24 09:17:00
5:43 AM,42.8,41.0,93,29.72,4.0,WSW,3.5,-,0.07,Rain,Light Rain,240,2013-03-24 09:43:00
5:54 AM,42.1,41.0,96,29.70,4.0,SW,5.8,-,0.09,Rain,Rain,220,2013-03-24 09:54:00
6:13 AM,42.8,41.0,93,29.70,4.0,Calm,Calm,-,0.02,Rain,Rain,0,2013-03-24 10:13:00
6:21 AM,42.8,41.0,93,29.69,5.0,Calm,Calm,-,0.03,Rain,Light Rain,0,2013-03-24 10:21:00
6:29 AM,42.8,41.0,93,29.68,2.0,WNW,3.5,-,0.03,Rain,Light Rain,290,2013-03-24 10:29:00
6:37 AM,42.8,41.0,93,29.67,2.0,NW,4.6,-,0.04,Rain,Light Rain,320,2013-03-24 10:37:00
6:54 AM,42.1,41.0,96,29.65,9.0,NW,6.9,-,0.04,Rain,Light Rain,320,2013-03-24 10:54:00
7:21 AM,42.8,39.2,87,29.69,5.0,Variable,4.6,-,0.07,Rain,Rain,0,2013-03-24 11:21:00
7:38 AM,42.8,39.2,87,29.73,5.0,NE,5.8,-,0.12,Rain,Heavy Rain,40,2013-03-24 11:38:00
7:54 AM,42.1,39.0,89,29.76,4.0,Calm,Calm,-,0.17,Rain,Rain,0,2013-03-24 11:54:00
8:13 AM,42.8,39.2,87,29.73,3.0,East,9.2,-,0.11,Rain,Heavy Rain,100,2013-03-24 12:13:00
8:54 AM,43.0,39.9,89,29.69,10.0,Calm,Calm,-,0.18,,Overcast,0,2013-03-24 12:54:00
9:34 AM,42.8,37.4,81,29.69,7.0,ENE,5.8,-,0.00,Rain,Light Rain,70,2013-03-24 13:34:00
9:54 AM,41.0,39.0,93,29.70,3.0,Variable,3.5,-,0.01,Rain,Light Rain,0,2013-03-24 13:54:00
10:05 AM,41.0,37.4,87,29.71,3.0,Variable,5.8,-,0.00,Rain,Light Rain,0,2013-03-24 14:05:00
10:25 AM,39.2,37.4,93,29.70,3.0,Variable,5.8,-,0.01,Rain,Light Rain,0,2013-03-24 14:25:00
10:54 AM,39.9,37.9,93,29.69,5.0,Variable,4.6,-,0.03,Rain,Light Rain,0,2013-03-24 14:54:00
11:40 AM,41.0,37.4,87,29.68,6.0,NE,6.9,-,0.01,Rain,Light Rain,50,2013-03-24 15:40:00
11:54 AM,41.0,37.0,86,29.67,5.0,Variable,5.8,-,0.02,Rain,Light Rain,0,2013-03-24 15:54:00
12:54 PM,41.0,37.0,86,29.65,10.0,NE,4.6,-,0.01,,Overcast,50,2013-03-24 16:54:00
1:54 PM,42.1,37.9,85,29.62,10.0,Variable,3.5,-,0.00,,Overcast,0,2013-03-24 17:54:00
2:02 PM,42.8,39.2,87,29.62,2.0,Calm,Calm,-,N/A,,Overcast,0,2013-03-24 18:02:00
2:36 PM,42.8,39.2,87,29.59,10.0,Calm,Calm,-,N/A,,Overcast,0,2013-03-24 18:36:00
2:54 PM,43.0,39.0,86,29.58,10.0,Calm,Calm,-,N/A,,Overcast,0,2013-03-24 18:54:00
3:54 PM,43.0,39.9,89,29.53,10.0,South,5.8,-,N/A,,Overcast,170,2013-03-24 19:54:00
4:21 PM,44.6,39.2,81,29.53,10.0,South,9.2,-,N/A,,Overcast,170,2013-03-24 20:21:00
4:54 PM,43.0,39.0,86,29.52,10.0,South,12.7,-,N/A,,Overcast,170,2013-03-24 20:54:00
5:06 PM,42.8,39.2,87,29.54,10.0,South,13.8,-,N/A,,Overcast,180,2013-03-24 21:06:00
5:14 PM,42.8,39.2,87,29.54,10.0,South,11.5,-,N/A,,Overcast,180,2013-03-24 21:14:00
5:22 PM,42.8,39.2,87,29.54,10.0,SSE,10.4,-,N/A,,Overcast,160,2013-03-24 21:22:00
5:40 PM,41.0,39.2,93,29.53,2.0,SSE,8.1,-,N/A,,Overcast,150,2013-03-24 21:40:00
5:54 PM,41.0,39.0,93,29.54,2.0,SSE,9.2,-,N/A,,Overcast,160,2013-03-24 21:54:00
6:01 PM,41.0,37.4,87,29.53,7.0,SSE,8.1,-,N/A,,Overcast,150,2013-03-24 22:01:00
6:54 PM,39.9,37.9,93,29.55,3.0,SSE,10.4,16.1,N/A,,Overcast,160,2013-03-24 22:54:00
7:25 PM,39.2,37.4,93,29.52,3.0,SE,9.2,-,N/A,,Overcast,140,2013-03-24 23:25:00
7:54 PM,39.0,37.9,96,29.53,3.0,SSE,10.4,16.1,N/A,,Overcast,150,2013-03-24 23:54:00
8:54 PM,39.0,37.0,93,29.53,3.0,SE,10.4,-,0.06,Rain,Light Rain,140,2013-03-25 00:54:00
9:54 PM,37.9,37.0,97,29.55,10.0,SSE,8.1,-,0.00,,Overcast,150,2013-03-25 01:54:00
10:42 PM,37.4,37.4,100,29.53,10.0,SE,9.2,-,N/A,,Overcast,140,2013-03-25 02:42:00
10:54 PM,37.9,37.0,97,29.53,10.0,SSE,11.5,-,N/A,,Overcast,160,2013-03-25 02:54:00
11:25 PM,37.4,37.4,100,29.54,8.0,East,3.5,-,0.01,Rain,Light Rain,100,2013-03-25 03:25:00
11:54 PM,37.9,37.9,100,29.54,10.0,Variable,5.8,-,0.01,,Overcast,0,2013-03-25 03:54:00